Location: Invercargill
(46.4000°S, 168.3500°E)
Time: 16:41:45
(UTC+12:00)

Vanguard 2 Rocket - All Passes

Search period start: 23 July 2019 00:00
Search period end: 02 August 2019 00:00
Orbit: 554 x 3326 km, 32.9° (Epoch: 22 July)

Date Brightness Start Highest point End Pass type
(mag) Time Alt. Az. Time Alt. Az. Time Alt. Az.
23 Jul - 01:47:39 10° NW 01:58:25 44° NNE 02:15:02 10° E visible
23 Jul - 04:00:05 10° WNW 04:13:54 50° N 04:32:45 10° ENE visible
23 Jul - 06:14:49 10° W 06:30:08 37° NNW 06:47:20 10° NNE visible
23 Jul - 08:34:30 10° WNW 08:45:04 17° NW 08:55:29 10° NNW daylight
23 Jul - 22:42:27 10° NNE 22:46:11 13° NE 22:50:39 10° ENE night (unlit)
24 Jul - 00:49:03 10° NW 00:58:11 36° NNE 01:12:27 10° E visible
24 Jul - 03:00:31 10° WNW 03:12:45 49° N 03:30:54 10° ENE visible
24 Jul - 05:14:12 10° W 05:28:49 42° NNW 05:46:55 10° NE visible
24 Jul - 07:31:12 10° W 07:44:22 24° NW 07:58:05 10° N visible
24 Jul - 23:51:00 10° NNW 23:58:27 27° NE 00:09:40 10° E visible
25 Jul - 02:01:21 10° WNW 02:11:58 46° N 02:28:41 10° ENE visible
25 Jul - 04:14:08 10° WNW 04:27:31 46° NNW 04:45:50 10° NE visible
25 Jul - 06:29:26 10° W 06:43:24 30° NNW 06:59:09 10° NNE visible
25 Jul - 08:57:09 10° NW 08:57:54 10° NW 08:58:40 10° NW daylight
25 Jul - 22:53:44 10° N 22:59:09 18° NE 23:06:30 10° E night (unlit)
26 Jul - 01:02:34 10° NW 01:11:38 40° NNE 01:26:16 10° E visible
26 Jul - 03:14:30 10° WNW 03:26:25 47° N 03:44:12 10° ENE visible
26 Jul - 05:28:34 10° W 05:42:16 36° NNW 05:59:14 10° NNE visible
26 Jul - 07:47:40 10° WNW 07:57:23 16° NW 08:07:33 10° NNW visible
27 Jul - 00:04:12 10° NNW 00:11:46 33° NNE 00:23:45 10° E visible
27 Jul - 02:15:14 10° WNW 02:25:39 46° N 02:42:10 10° ENE visible
27 Jul - 04:28:21 10° W 04:41:08 40° NNW 04:58:31 10° NE visible
27 Jul - 06:44:44 10° W 06:56:37 22° NW 07:09:58 10° N visible
27 Jul - 23:06:22 10° NNW 23:12:21 24° NE 23:21:10 10° E night (unlit)
28 Jul - 01:16:20 10° NW 01:25:16 43° N 01:39:54 10° ENE visible
28 Jul - 03:28:37 10° WNW 03:40:08 43° N 03:57:11 10° NE visible
28 Jul - 05:43:20 10° W 05:55:41 28° NNW 06:10:49 10° NNE visible
28 Jul - 22:09:30 10° N 22:13:18 15° NE 22:18:07 10° ENE night (unlit)
29 Jul - 00:17:46 10° NW 00:25:18 37° NNE 00:37:36 10° ENE visible
29 Jul - 02:29:17 10° WNW 02:39:24 44° N 02:55:24 10° ENE visible
29 Jul - 04:42:50 10° W 04:54:42 33° NNW 05:10:39 10° NNE visible
29 Jul - 07:01:39 10° WNW 07:09:50 15° NW 07:18:46 10° NNW visible
29 Jul - 23:19:35 10° NNW 23:25:46 28° NNE 23:35:20 10° ENE night (unlit)
30 Jul - 01:30:17 10° WNW 01:39:01 42° N 01:53:22 10° ENE visible
30 Jul - 03:42:56 10° WNW 03:53:51 36° NNW 04:09:44 10° NE visible
30 Jul - 05:58:53 10° WNW 06:09:06 20° NW 06:21:13 10° N visible
30 Jul - 22:21:57 10° N 22:26:36 20° NE 22:33:03 10° ENE night (unlit)
31 Jul - 00:31:35 10° NW 00:39:00 38° N 00:51:16 10° ENE visible
31 Jul - 02:43:29 10° WNW 02:53:12 39° N 03:08:19 10° NE visible
31 Jul - 04:57:47 10° WNW 05:08:18 25° NNW 05:21:56 10° NNE visible
31 Jul - 21:25:51 10° NNE 21:27:42 11° NE 21:29:47 10° ENE night (unlit)
31 Jul - 23:33:11 10° NW 23:39:22 32° NNE 23:49:14 10° ENE night (unlit)
01 Aug - 01:44:23 10° WNW 01:52:50 39° N 02:06:34 10° ENE visible
01 Aug - 03:57:33 10° WNW 04:07:34 29° NNW 04:21:40 10° NNE visible
01 Aug - 06:16:43 10° WNW 06:22:32 13° NW 06:28:57 10° NNW visible
01 Aug - 22:35:09 10° NNW 22:40:05 24° NNE 22:47:20 10° ENE night (unlit)
